Weather in Barquisimeto

Venezuela     10°04′29″N   69°17′53″W
temp.,
°C
wind,
m/s
gust,
m/s
humid.,
%
clouds,
%
prec.,
mm/h
press.,
hPa
HPBL,
m
26 october, tue
tue2623:00+20ese119631 0.1 101541
02:00+19ese019740 0.1 101434
05:00+19se119716 0.1 101328
08:00+23se25818 0.2 1015394
11:00+28se4757100 0.3 10141358
14:00+29se4655100 0.5 10111410
17:00+26se3563100 0.1 1010791
20:00+22se1383100 0.1 101292
27 october, wed
wed2723:00+21sse1288100 0.0 101357
02:00+20se1392100 0.1 101272
05:00+20se1495100 0.1 1012105
08:00+22se3890100 0.6 1014622
11:00+23sse3685100 0.3 1015563
14:00+27se4661100 0.6 10111211
17:00+25se356979 0.1 1010712
20:00+21se2695100 0.1 1013192
28 october, thu
thu2823:00+20se2798100 0.1 1014294
02:00+21se2898100 0.3 1012455
05:00+21se2898100 0.1 1012505
08:00+21se2796100 0.3 1015398
11:00+22se368693 0.6 1016557
14:00+21se3693100 1.2 1013362
17:00+20ese2597100 0.5 1013278
20:00+20ese1198100 0.6 101479
29 october, fri
fri2923:00+19ene0098100 0.0 101434
02:00+20nnw0094100 0.0 101321
05:00+20ssw009397 0.1 101318
08:00+21se128861 0.1 101581
11:00+27ese345487 0.0 10141321
14:00+27se335869 1.3 10111371
17:00+23sse2481100 0.9 1011276
20:00+20sw1297100 5.8 101362
30 october, sat
sat3023:00+19se1298100 4.4 101478
02:00+19se1399100 4.4 1013161
05:00+19ese129947 0.0 101292
08:00+21ese119355 0.1 1014161
11:00+28ese345420 0.3 10131214
14:00+29ese445329 0.6 10091555
17:00+26ese336777 0.6 1009921
20:00+21se1196100 1.5 101242